Wind_Speed
29 29 29 28 28 28 28 27 28 27 28 28 28 28 29 29 29 30 30 30 30 29 29 28 28 28 28 28 28 28 29 29 29 30 30 30 30 30 30 30 31 30 30 30 29 28 28 28 27 26 26 26 27 28 29 30 31 31 31 29 26 21 17 19 24 27 28 31 37 41 42 41 40 40 36 32 32 31 30 31 31 31 33 32 28 29 29 27
30 30 30 29 29 29 28 28 28 28 28 28 28 28 28 29 29 29 29 29 29 28 28 28 28 27 27 28 28 28 28 29 29 29 30 30 30 30 30 30 30 30 30 29 28 28 28 27 26 24 24 25 26 27 29 30 31 31 30 29 24 19 18 22 28 29 30 34 39 41 42 43 42 40 36 32 30 32 33 33 32 30 32 32 28 29 28 28
30 30 31 31 31 30 30 29 29 29 28 28 28 28 28 28 28 29 28 28 28 28 28 27 27 27 27 27 28 28 28 28 29 29 29 29 30 30 30 29 29 29 29 28 27 27 27 25 24 23 23 24 26 27 29 30 30 30 31 28 21 19 22 28 32 32 33 37 39 40 42 42 44 42 36 31 30 31 33 34 33 31 31 30 26 27 28 29
28 29 30 30 31 31 31 30 30 29 29 28 28 28 28 28 28 28 28 28 28 28 27 27 27 27 27 27 27 27 28 28 28 29 29 29 30 30 29 29 29 28 28 27 27 27 26 24 23 23 23 24 25 26 27 28 30 31 31 26 20 23 27 32 35 35 37 38 39 40 41 42 45 45 36 31 31 30 32 33 32 32 30 27 25 26 27 28
27 28 29 29 30 30 30 30 30 29 29 29 28 28 28 28 28 28 28 28 28 28 27 27 27 27 27 27 28 27 28 28 28 28 29 29 29 29 30 30 29 28 27 27 27 26 24 23 22 22 22 23 25 25 25 27 30 31 30 25 22 25 29 34 38 38 39 39 40 40 41 42 44 45 38 32 31 29 29 30 30 32 29 25 23 24 25 26
27 27 28 28 29 29 29 30 30 29 29 29 29 28 28 28 28 28 28 28 28 28 27 28 27 27 27 27 28 27 28 28 28 28 29 29 29 30 30 30 29 27 26 26 25 24 22 21 21 20 21 23 24 24 25 28 31 31 28 24 23 26 30 34 40 41 41 40 40 40 41 41 41 43 39 32 30 28 26 27 29 30 28 24 21 21 23 25
28 27 27 28 28 28 29 29 29 29 29 29 29 29 29 29 29 29 29 28 28 28 28 28 28 28 28 28 28 28 28 28 28 28 29 29 29 30 29 29 27 27 26 25 23 22 21 20 20 20 21 22 23 24 26 30 32 30 27 23 24 27 30 35 40 43 42 40 40 41 41 40 39 41 40 33 29 27 25 25 26 26 25 24 20 20 22 25
29 28 28 28 28 28 28 28 29 29 29 29 29 29 29 29 29 29 29 29 29 29 28 28 28 28 28 28 28 28 29 28 28 28 28 28 28 28 28 28 26 25 24 23 22 22 20 19 19 20 21 22 24 24 27 31 31 28 25 23 26 29 32 36 42 45 44 41 39 40 41 39 38 40 41 36 31 28 25 25 26 25 25 25 22 21 21 23
30 30 29 29 28 28 28 28 28 28 29 29 29 29 29 30 30 30 30 30 30 30 29 29 29 29 29 29 28 29 29 28 28 28 27 27 27 27 27 27 26 24 24 23 22 20 20 20 21 22 22 23 25 25 28 31 30 26 25 26 29 31 33 38 43 45 45 43 40 39 39 39 39 41 41 37 32 28 25 25 25 26 27 26 24 22 21 22
31 31 30 30 30 29 29 29 29 29 29 29 29 29 30 30 30 30 31 31 31 31 30 30 30 30 30 29 29 29 28 28 28 27 26 26 25 26 26 26 26 25 24 22 21 20 22 23 23 23 22 23 24 25 28 29 28 26 26 28 29 31 33 37 41 43 44 44 42 39 37 38 40 41 39 36 32 28 26 25 25 27 28 27 24 23 21 21
32 31 31 31 30 30 30 30 30 30 30 30 30 30 30 30 30 31 31 31 31 31 31 31 31 30 30 30 29 29 28 27 27 26 26 25 25 26 26 26 26 25 23 21 21 22 23 23 23 22 22 23 24 25 28 28 27 27 27 28 28 30 31 36 39 39 42 44 42 40 37 38 41 41 39 37 34 29 26 25 26 27 28 27 25 23 22 21
32 31 31 31 31 30 30 30 30 30 30 31 31 31 30 30 31 31 31 31 32 32 32 32 31 31 31 30 30 29 27 27 27 26 26 26 25 26 26 27 26 25 23 22 23 24 24 24 23 23 23 24 24 24 26 26 27 28 27 27 27 29 30 33 37 36 40 43 42 42 40 40 42 41 40 39 33 28 25 24 25 26 26 27 26 24 21 20
32 31 31 31 30 30 30 30 31 31 31 31 31 31 31 31 31 31 31 31 32 32 32 32 32 32 31 31 31 29 27 27 26 26 27 27 27 26 26 27 27 26 24 23 24 25 26 25 24 24 24 23 22 23 24 24 25 26 27 26 25 27 27 29 34 35 37 40 42 45 44 42 41 40 41 37 29 25 23 22 23 24 23 22 23 22 19 18
31 31 31 30 30 30 30 30 30 30 30 30 30 30 30 30 31 31 31 32 32 33 33 33 33 33 31 32 32 28 26 27 26 27 27 27 26 26 26 26 27 27 26 26 26 27 27 26 25 25 24 22 22 23 23 23 24 24 25 25 24 26 25 25 31 34 35 37 41 46 47 45 42 40 39 34 25 21 21 20 22 23 21 18 19 18 16 15
31 31 30 30 30 29 29 29 29 29 29 29 30 30 30 31 31 32 32 32 33 33 33 33 34 33 32 32 33 29 28 27 27 27 26 25 24 25 26 27 27 27 28 28 28 28 28 27 25 24 24 23 23 23 22 23 23 23 24 23 23 24 23 23 29 32 32 33 39 46 48 47 44 42 39 35 26 21 21 21 21 22 21 18 17 16 13 13
30 30 30 30 29 29 29 29 29 29 29 29 30 30 30 30 31 32 32 32 33 33 33 33 34 34 33 32 32 31 29 28 27 26 24 23 24 25 26 27 28 28 28 29 29 29 29 27 25 25 25 24 24 23 23 23 22 22 22 21 21 23 22 23 26 28 29 31 35 43 48 47 45 43 38 35 30 26 25 24 21 22 21 19 17 15 13 11
30 30 29 29 29 29 28 28 28 29 29 29 30 30 30 31 31 31 32 32 32 32 33 33 33 33 33 32 32 31 30 28 27 25 24 24 25 26 26 27 28 28 29 30 30 29 28 26 25 26 26 25 24 24 23 22 20 20 21 20 21 23 22 23 24 26 28 30 34 39 45 47 46 42 38 35 33 30 29 26 23 22 22 20 17 15 12 9
29 29 28 28 28 28 28 28 28 29 29 30 30 31 31 31 31 31 31 31 31 31 31 32 32 32 32 31 31 31 31 28 26 25 24 23 24 25 27 28 29 29 29 30 28 27 26 25 26 27 27 26 25 25 23 19 18 19 21 21 22 23 23 23 24 27 30 33 35 38 42 44 43 40 38 38 36 33 31 28 24 23 22 20 16 13 10 8
29 29 28 28 27 27 27 28 28 29 30 30 31 31 31 30 30 30 30 29 29 30 30 31 31 31 30 30 31 31 30 29 27 25 24 23 23 24 26 28 29 29 29 28 26 26 25 24 24 25 25 25 25 25 22 19 19 20 22 22 22 23 23 23 24 28 31 34 36 37 40 42 43 40 37 37 36 32 31 29 26 24 24 21 16 12 10 11
29 28 28 27 27 27 27 28 28 29 29 30 31 30 30 29 29 29 29 28 28 29 30 30 30 30 29 29 31 30 29 28 27 26 24 23 23 23 25 27 28 29 27 26 26 25 25 23 21 19 21 23 24 23 23 22 21 21 22 22 22 22 21 21 23 27 31 33 35 37 39 42 43 39 34 35 34 33 32 30 27 25 23 21 18 14 14 15
29 28 27 27 27 27 27 28 28 28 29 30 30 28 28 28 28 29 28 28 27 28 29 29 30 28 25 28 31 30 29 28 26 25 23 22 22 22 23 25 26 26 25 25 25 24 24 20 15 15 18 22 24 23 23 24 23 22 21 21 21 20 19 20 22 26 28 30 31 33 36 38 37 33 32 34 34 33 31 29 26 23 22 22 21 19 18 17
28 27 26 26 27 27 27 27 27 28 28 29 28 27 27 27 27 28 28 28 26 28 29 29 29 26 22 27 31 30 28 26 23 23 23 23 22 21 21 23 24 23 25 26 25 23 20 14 11 16 20 22 24 23 23 23 24 23 21 21 19 17 18 19 21 24 26 27 28 30 32 33 32 30 32 33 32 31 30 27 23 21 22 23 23 21 18 17
27 26 26 26 26 27 27 27 27 27 28 27 26 26 26 27 27 27 28 28 25 27 30 28 29 27 22 25 29 30 27 22 21 22 23 22 21 21 22 22 22 24 26 25 23 21 16 13 15 20 22 22 23 22 22 22 23 23 22 20 18 17 18 19 20 24 27 26 25 28 30 27 27 29 30 31 29 28 27 25 22 22 24 23 22 20 18 17
26 26 25 25 26 26 27 27 27 27 27 27 25 25 26 26 27 27 27 27 23 23 27 28 29 26 20 22 29 31 25 20 21 22 22 21 21 22 21 21 23 25 25 23 22 19 16 17 20 21 21 21 22 22 21 21 21 22 22 20 17 18 19 19 22 26 27 26 25 28 27 23 24 26 27 27 26 24 25 26 25 26 24 20 19 21 19 19
25 25 25 25 26 26 27 27 26 26 26 26 24 24 26 27 27 27 25 25 20 17 23 27 27 21 19 25 29 29 24 19 18 20 20 21 21 22 21 21 23 24 23 23 22 19 18 20 20 19 20 21 21 21 20 20 21 22 21 19 18 20 21 21 25 27 26 24 24 26 23 23 26 24 23 24 23 22 23 26 27 25 22 18 19 21 19 17
25 25 24 25 26 27 27 27 26 26 25 25 24 25 26 27 27 25 24 24 19 15 19 23 23 20 20 25 25 26 25 18 17 21 22 21 22 23 22 21 21 22 23 24 23 19 20 21 20 19 20 20 20 20 19 19 20 21 20 20 21 21 22 23 25 29 28 24 21 22 22 27 28 22 21 22 21 22 24 25 25 23 21 21 21 20 18 15
24 25 25 24 25 27 27 26 25 25 24 24 24 25 27 27 25 23 23 23 19 16 16 18 20 19 20 24 24 25 23 19 20 23 21 20 22 23 21 20 20 23 25 25 20 18 20 21 20 20 20 20 19 19 20 20 20 21 21 22 22 22 22 23 26 29 29 26 22 22 23 27 27 23 22 23 22 22 24 25 26 24 23 24 22 20 17 14
24 25 25 24 24 26 26 24 24 24 24 24 24 25 26 26 24 22 23 20 15 14 13 14 18 18 19 22 22 22 23 21 22 23 21 21 23 22 20 18 20 24 26 24 19 18 21 21 21 23 22 20 19 20 21 22 22 21 21 23 23 22 22 23 27 28 26 25 23 22 25 25 25 24 24 24 24 22 21 23 25 27 26 26 24 20 16 13
24 25 24 23 23 25 25 23 24 24 24 23 24 25 25 24 23 22 22 18 13 12 12 14 18 19 20 20 19 20 21 21 22 22 22 23 23 21 19 19 23 27 26 23 21 21 21 21 23 24 21 19 20 22 22 22 21 17 19 23 23 23 23 25 29 27 24 25 23 22 26 26 24 25 26 25 25 24 21 21 24 27 29 29 26 20 16 14
24 25 24 23 22 24 23 23 24 24 23 23 23 24 25 23 23 23 22 16 14 15 15 15 18 21 21 20 19 19 19 20 22 21 21 23 24 22 21 22 26 29 26 23 22 22 21 22 23 22 21 21 22 22 22 21 18 15 18 23 24 24 25 27 30 27 24 26 24 22 27 28 24 24 27 26 25 24 22 21 22 24 29 30 27 23 19 17
24 24 23 21 21 21 22 22 23 22 22 22 23 24 23 23 23 23 18 15 16 18 17 17 19 21 22 24 23 22 21 22 23 21 20 22 23 22 22 23 25 27 25 22 22 23 22 21 21 20 22 23 23 23 21 19 18 17 20 22 24 25 26 29 32 29 27 27 24 23 27 29 26 24 27 28 26 25 24 22 21 22 24 25 25 23 21 20
22 22 20 19 19 19 20 20 22 21 20 20 22 22 22 22 21 18 15 16 20 20 19 20 21 21 23 25 27 26 24 23 24 21 19 20 21 20 20 21 23 24 23 20 21 23 23 20 20 21 22 23 24 24 22 20 20 20 21 23 25 25 26 31 33 31 29 28 25 24 28 30 29 27 28 29 28 27 25 24 24 23 22 22 23 23 22 23
21 19 19 18 18 19 19 20 21 20 19 20 21 21 21 20 17 14 15 19 22 22 21 22 23 23 23 24 25 26 26 25 25 23 21 21 21 20 20 22 23 23 22 21 21 21 21 21 21 21 22 23 24 23 22 20 19 17 18 21 23 24 26 30 34 32 30 29 26 25 27 30 31 30 30 29 28 27 26 26 27 26 25 25 26 27 27 27
19 18 18 19 19 18 18 19 20 20 19 20 21 21 20 18 15 16 18 21 23 24 24 23 24 26 26 24 24 25 25 26 26 26 24 24 23 21 22 22 22 23 23 24 24 22 22 22 23 22 22 22 21 20 19 18 16 13 13 16 20 24 26 28 32 33 30 28 28 27 27 30 32 32 31 30 30 29 29 30 30 30 29 29 30 32 31 28
17 17 18 19 18 17 17 17 19 19 18 18 20 20 18 17 17 19 21 22 25 27 27 25 26 28 27 26 26 27 27 26 26 26 25 25 24 22 21 21 21 23 24 25 24 23 22 23 23 23 22 20 15 13 14 17 17 16 16 17 19 22 24 24 29 33 33 29 27 28 30 32 33 32 30 29 28 28 29 32 34 33 32 31 30 29 28 29
16 16 17 17 16 15 15 16 17 18 18 18 18 18 18 18 19 20 22 25 27 28 29 28 28 28 28 28 28 28 29 27 25 25 25 25 25 23 23 22 22 23 24 24 23 23 23 22 22 23 20 18 16 14 14 16 19 20 20 19 19 21 22 23 26 31 35 32 28 29 31 32 32 31 30 27 25 22 21 25 29 30 31 29 26 25 26 29
14 15 15 15 14 14 15 15 16 17 18 18 18 18 18 19 20 21 24 26 27 28 30 31 31 31 30 30 30 28 27 27 27 26 25 25 25 25 24 25 25 24 25 25 24 25 24 21 21 22 20 19 20 19 17 19 22 23 22 20 21 23 24 25 25 27 32 33 32 33 32 32 33 33 31 28 27 24 20 20 23 25 26 25 23 24 25 25
13 14 13 13 14 14 14 15 16 17 18 19 19 19 19 20 21 22 23 25 27 27 29 33 34 33 32 32 32 30 27 28 28 28 27 26 26 26 25 26 27 27 26 24 24 25 24 23 23 23 23 21 21 22 21 22 24 25 24 23 23 24 25 26 26 26 29 33 35 36 35 35 35 34 32 30 29 29 26 24 23 23 23 24 24 25 25 24
13 12 12 12 13 14 14 15 16 17 18 19 20 20 20 21 22 22 22 24 26 26 29 33 35 34 33 32 33 32 29 30 30 28 28 28 28 26 25 26 28 29 27 24 23 25 25 25 25 24 24 22 21 23 24 24 24 25 27 27 25 26 27 27 27 28 29 31 36 38 38 37 36 35 34 32 29 29 28 26 25 24 24 25 27 26 27 26
12 11 11 11 11 12 13 13 14 16 17 19 20 20 21 22 24 24 24 24 26 27 29 33 36 35 35 34 34 33 31 31 31 29 28 28 28 26 24 27 29 29 27 24 23 26 26 26 26 25 25 24 24 25 25 25 25 26 28 27 25 25 27 28 29 31 31 32 34 36 37 35 32 30 28 26 26 26 25 22 24 26 26 25 26 26 25 24
11 10 9 9 9 10 11 13 15 16 18 19 20 21 21 22 24 26 26 26 26 28 30 35 38 38 38 37 36 34 33 33 33 32 30 29 27 25 25 27 28 28 27 26 25 26 27 27 26 26 27 27 27 28 27 26 26 26 27 27 24 25 27 28 28 30 32 33 33 33 32 30 27 25 23 21 22 25 25 21 21 24 25 24 24 22 20 21
9 8 8 8 8 10 12 14 15 17 18 19 20 22 23 24 25 26 27 27 28 30 31 35 40 41 40 39 38 36 35 35 35 34 31 29 27 26 26 27 29 28 28 28 28 28 29 29 27 28 29 29 29 29 28 27 26 26 28 28 26 26 27 27 26 27 29 31 32 32 31 28 26 24 23 22 22 24 24 23 22 23 23 22 22 21 20 20
7 7 7 8 9 11 13 15 15 15 15 16 17 18 20 22 25 27 28 27 29 32 33 35 39 43 43 40 39 38 36 35 36 35 33 30 27 26 28 29 30 31 30 30 30 29 30 30 29 30 30 30 31 31 29 27 27 27 29 30 29 28 28 28 27 26 27 28 29 30 30 28 24 23 22 23 23 22 22 22 22 21 20 19 18 18 17 16
6 7 8 9 10 12 14 14 14 14 13 13 12 12 14 16 19 24 28 29 30 33 35 37 39 43 45 43 40 38 36 35 36 35 35 34 30 27 27 29 30 32 32 32 32 32 31 31 31 32 32 32 32 32 31 29 27 28 30 31 31 30 30 30 28 27 27 27 28 28 29 27 24 23 23 22 22 20 20 20 20 20 20 18 17 15 13 12
6 7 8 10 11 12 14 15 15 14 13 12 12 12 14 15 16 19 24 29 32 33 36 38 39 41 44 46 44 41 38 36 35 35 36 36 33 29 27 27 28 30 30 31 32 32 32 33 33 33 34 34 33 33 33 31 29 29 31 32 32 32 32 31 30 29 28 29 28 28 27 26 25 24 24 23 21 19 19 19 19 21 22 19 16 13 12 12
6 7 9 10 12 13 14 15 15 16 15 15 15 15 17 18 19 19 22 26 30 34 36 37 39 40 41 43 45 45 42 40 38 38 37 36 34 31 28 27 26 26 27 28 29 29 29 32 34 34 34 35 35 35 34 33 32 31 30 31 32 33 34 33 32 32 31 30 30 29 28 27 26 26 25 24 23 21 21 21 19 18 17 15 12 12 12 12
6 7 8 10 12 13 14 14 14 17 18 17 17 18 20 21 22 22 23 25 28 32 36 37 38 39 40 41 43 44 44 42 41 41 39 36 33 32 30 28 26 25 23 24 26 27 27 29 32 34 34 34 35 36 35 34 34 34 32 31 32 33 34 35 34 34 33 33 32 30 29 28 27 27 27 27 26 25 24 23 22 19 17 15 13 12 13 12
6 6 8 10 11 12 13 14 13 13 15 16 17 19 20 21 21 21 22 24 26 29 33 36 37 38 38 39 40 42 43 43 42 41 40 37 33 31 31 29 27 24 21 21 22 25 28 28 29 32 34 34 34 35 36 36 35 35 34 33 33 34 35 36 36 36 36 35 34 32 31 30 28 28 27 27 26 24 23 23 22 21 21 19 16 14 13 14
6 7 8 9 10 11 13 13 10 10 11 13 15 17 18 18 18 18 19 20 23 26 30 33 35 35 36 37 39 41 42 42 41 41 40 39 35 31 29 30 29 23 19 18 19 22 26 28 28 30 32 34 35 35 37 38 38 38 37 36 35 35 36 37 38 38 38 38 36 35 33 32 31 30 29 28 27 25 23 22 21 20 20 19 19 18 17 17
6 7 8 9 9 11 13 13 10 9 10 11 14 16 15 14 14 13 13 15 18 23 27 30 32 32 32 33 35 39 40 40 40 41 41 40 38 33 28 28 30 25 18 16 17 19 23 26 28 29 30 33 36 37 38 38 39 40 39 38 37 37 37 38 38 38 40 40 38 36 35 33 33 32 31 30 28 26 23 22 21 21 20 21 21 21 19 18
6 7 7 8 9 10 13 12 10 9 10 12 14 14 12 11 10 8 7 10 14 18 23 27 29 28 29 30 32 36 39 39 39 40 41 40 39 36 30 25 26 26 22 18 17 18 20 22 25 27 28 30 33 37 40 41 40 40 40 40 39 38 38 38 38 38 39 41 41 39 37 36 34 33 31 28 26 25 22 21 21 21 22 23 23 20 18 16
5 6 7 7 8 9 11 11 10 9 10 12 13 12 9 8 8 7 6 6 9 13 17 23 26 26 25 26 28 32 37 40 40 40 40 38 37 36 33 27 24 24 25 22 19 18 19 19 20 23 25 27 28 33 41 44 42 41 41 40 40 40 38 38 38 38 37 38 39 38 37 36 36 35 34 30 27 25 23 22 22 23 24 24 23 21 20 19
Wind_Direction
256 256 256 257 257 257 258 259 259 260 261 261 262 262 263 263 263 263 264 265 265 266 267 268 269 270 271 272 272 273 273 273 273 273 274 274 274 274 275 275 274 274 274 274 274 274 274 273 271 268 264 261 256 252 250 249 248 249 246 241 234 223 213 209 217 218 213 210 209 211 213 216 220 220 216 219 225 230 235 241 245 248 252 254 256 260 261 261
257 257 256 256 256 256 257 258 258 259 260 260 261 261 261 262 262 262 262 263 264 264 265 267 268 269 270 270 271 271 271 271 271 272 272 272 273 273 273 273 272 273 274 274 273 273 273 272 271 267 262 258 253 250 249 248 247 248 244 239 229 215 202 199 209 211 207 206 206 209 213 215 217 219 219 219 224 231 234 238 242 247 256 258 255 259 262 261
257 257 257 256 256 256 256 256 256 257 258 258 259 259 259 260 260 260 261 261 262 263 264 265 266 268 268 269 269 269 270 270 270 270 271 271 271 271 271 270 270 271 272 272 272 273 272 271 268 263 259 254 251 249 247 246 246 245 243 237 222 209 201 195 202 205 202 202 204 207 211 215 218 218 220 221 224 231 235 238 242 246 256 260 258 261 264 265
257 257 257 256 256 255 255 255 254 255 255 256 257 257 258 258 258 259 260 261 261 262 263 264 265 267 268 268 268 269 269 269 269 269 270 270 269 269 268 268 268 269 270 270 271 271 271 268 265 261 256 252 250 248 244 244 245 243 242 236 214 208 203 193 198 203 201 202 204 207 210 214 219 220 220 223 226 233 238 241 244 248 254 258 259 261 265 266
257 257 256 256 256 255 255 255 254 254 254 255 256 256 257 257 258 259 259 260 261 261 262 263 265 266 267 268 268 269 269 269 269 269 269 268 268 267 267 267 267 268 268 269 270 270 269 266 262 258 254 251 249 247 242 241 243 241 240 232 213 209 203 195 199 202 202 204 206 208 211 214 218 221 222 225 229 236 243 246 250 253 256 257 257 260 263 265
257 257 256 256 256 256 256 255 255 255 255 255 256 257 257 257 258 258 259 259 260 261 262 263 264 266 267 268 268 269 269 268 269 268 268 267 266 266 266 267 267 266 266 267 267 267 265 262 259 256 252 248 246 244 240 239 240 239 237 229 215 209 202 200 203 202 203 206 208 210 212 216 219 222 225 228 231 238 246 251 256 259 258 256 260 264 263 263
257 256 257 257 256 256 256 256 255 255 255 256 256 257 257 257 258 258 259 259 260 261 262 263 264 265 266 266 267 268 267 268 268 267 266 266 265 265 265 265 265 264 264 264 264 263 261 259 257 252 248 245 244 241 238 238 238 236 234 227 217 210 202 203 205 204 206 207 210 213 215 218 220 224 227 227 230 237 245 252 257 260 257 255 260 266 264 263
255 255 256 256 256 256 256 255 255 255 256 256 257 257 258 258 259 259 260 260 260 260 260 262 262 263 264 265 265 266 266 267 266 265 265 264 263 263 263 262 261 261 261 260 260 259 257 254 251 248 244 243 241 238 237 239 239 235 232 226 219 212 202 203 207 205 206 208 210 213 215 217 220 224 227 227 228 233 241 250 254 256 255 255 255 260 263 264
254 254 254 255 255 255 255 255 255 256 256 257 258 258 259 259 260 260 260 260 260 259 259 260 260 261 262 262 263 264 265 266 265 264 264 263 263 263 262 261 259 258 256 256 256 254 250 246 245 244 241 240 239 237 237 240 240 235 231 225 219 214 205 204 209 207 207 210 211 213 215 216 218 224 228 229 231 233 238 245 250 253 253 255 253 254 260 262
253 253 253 253 254 255 255 255 255 256 256 257 257 258 259 259 259 259 259 259 259 258 258 258 258 259 259 260 261 262 264 265 264 264 263 262 261 261 261 259 257 254 252 251 250 247 245 245 244 244 242 241 240 239 239 241 241 236 231 227 223 219 211 208 211 210 209 212 213 214 216 216 219 224 227 229 231 232 236 242 250 254 256 258 257 254 257 259
253 252 252 252 253 254 254 255 255 255 255 255 256 256 257 257 258 258 258 258 258 258 258 257 257 257 257 258 258 260 262 263 263 262 261 259 257 256 257 256 255 252 248 244 243 243 244 245 244 243 243 243 241 240 241 242 241 238 233 230 227 224 217 211 212 213 213 215 216 217 217 218 222 224 227 231 232 234 241 252 260 262 261 262 262 258 258 257
254 253 252 252 252 252 253 254 254 254 254 254 254 255 255 256 257 257 258 258 258 258 257 257 256 256 256 255 256 258 259 259 259 259 258 256 254 253 253 253 252 249 245 239 239 241 242 242 241 239 240 241 241 242 244 243 242 242 237 232 230 229 223 216 215 216 218 219 220 220 219 221 224 226 231 235 237 244 254 263 268 268 265 264 264 262 261 257
256 255 253 252 252 252 252 253 254 254 254 254 254 254 255 255 256 257 258 259 259 258 258 257 256 255 254 253 254 256 256 256 257 256 255 254 252 252 253 251 248 244 240 236 237 240 240 239 237 237 239 240 242 244 245 245 244 245 243 237 233 232 228 221 220 222 223 224 225 225 224 225 228 231 235 239 244 255 262 266 269 269 266 262 262 258 257 256
257 256 255 254 253 253 253 253 254 254 255 255 255 255 255 256 257 257 258 259 259 259 258 257 256 255 253 253 253 252 252 253 254 254 255 255 254 253 253 250 244 239 236 235 236 239 240 239 236 236 238 238 240 242 243 246 245 245 246 242 237 235 230 226 226 227 227 228 229 230 230 228 230 234 236 240 247 255 262 267 267 268 264 254 253 252 253 256
258 257 257 256 255 255 255 256 256 256 256 257 257 257 257 258 258 258 258 259 259 259 259 258 257 255 252 252 252 250 250 252 252 254 257 257 255 253 250 247 242 236 234 234 235 238 239 239 237 236 237 237 238 241 242 244 243 243 244 243 240 237 232 227 228 230 231 231 231 233 234 233 234 236 236 238 243 250 265 272 267 264 261 249 246 250 251 252
258 258 258 258 258 258 258 258 258 259 258 258 259 259 259 259 258 258 258 259 259 259 259 259 258 255 253 251 251 250 249 251 252 254 256 253 252 251 247 244 240 235 233 232 233 237 239 239 238 236 237 237 238 241 241 242 243 244 245 244 241 237 230 226 227 230 232 233 233 234 237 237 237 239 239 239 244 256 270 274 265 259 258 250 243 243 242 242
259 259 258 258 259 259 260 261 261 261 261 260 259 259 259 258 258 258 258 259 260 260 261 261 260 257 254 252 251 250 249 250 253 254 254 252 252 251 246 240 237 233 231 232 233 236 239 241 240 238 237 237 239 241 241 243 246 248 248 244 240 237 228 221 222 227 229 230 231 233 236 239 240 244 246 245 250 261 270 269 260 253 252 249 242 235 229 227
260 259 259 259 260 261 262 262 262 262 261 261 260 259 258 258 259 260 261 262 263 265 264 263 262 259 257 254 251 250 249 249 251 252 253 252 252 251 245 239 236 232 230 232 233 236 240 243 242 240 238 237 239 241 242 244 245 245 243 239 236 235 229 219 215 221 225 226 227 229 232 235 238 242 247 249 253 259 262 259 252 245 244 244 238 226 224 236
261 260 261 261 261 262 262 263 263 262 262 261 260 259 260 260 262 264 265 266 267 268 266 264 262 260 258 254 250 248 248 249 249 250 252 251 249 247 243 240 238 234 231 231 233 237 241 242 243 244 240 238 240 241 242 241 241 240 238 234 231 232 230 222 216 219 224 226 227 229 231 233 235 238 242 248 250 250 249 247 243 240 240 240 232 224 238 252
261 262 262 263 263 262 262 262 262 262 262 261 261 262 263 265 265 265 265 266 267 266 264 262 260 258 256 253 250 247 247 248 248 250 252 252 249 243 240 239 238 235 230 230 233 236 240 242 246 248 241 237 240 242 241 238 237 239 239 236 232 232 231 226 224 226 228 230 230 232 234 235 237 237 239 241 240 238 238 238 239 239 242 240 231 231 245 250
262 263 263 264 263 263 262 262 261 262 263 263 264 266 267 267 266 266 264 265 266 264 262 261 258 256 253 252 250 246 244 246 248 251 252 252 248 242 238 238 236 232 228 228 231 234 239 244 249 248 239 236 239 240 239 238 237 238 240 238 235 235 232 229 228 229 232 234 234 235 236 236 236 234 231 232 233 232 232 234 237 240 242 237 230 233 243 248
263 263 264 263 263 263 263 262 262 262 263 265 267 268 268 267 266 266 264 263 263 261 259 258 258 254 247 248 250 246 244 246 247 250 251 250 246 237 233 235 233 226 223 226 231 234 239 246 246 240 235 233 238 240 240 240 239 239 241 240 240 237 234 233 229 228 232 236 236 238 239 236 232 226 224 228 230 229 228 230 233 236 236 233 232 240 250 254
263 263 263 263 263 263 263 263 263 263 264 266 268 269 268 267 266 266 264 262 263 263 261 258 256 252 240 244 250 246 243 243 243 245 248 250 247 238 229 228 227 221 221 225 231 235 239 242 238 236 234 232 236 239 239 240 239 241 242 242 242 237 236 233 222 220 228 236 236 238 241 237 229 222 219 223 225 223 223 221 222 226 228 231 237 245 251 253
262 262 262 262 262 262 262 262 263 264 265 266 268 269 267 266 266 265 264 265 266 267 265 260 257 252 235 237 246 245 240 238 239 242 247 250 247 243 234 223 221 220 221 226 231 234 236 238 239 238 237 234 236 239 239 240 239 240 240 242 242 237 239 229 211 213 224 231 233 237 241 229 213 207 206 214 218 215 215 213 214 220 222 227 240 246 245 247
261 261 262 262 262 262 261 261 262 264 265 266 268 268 266 265 264 265 267 267 268 269 265 262 260 251 233 235 243 246 242 236 237 240 242 243 243 245 238 225 219 218 221 226 229 231 232 235 238 238 238 236 236 238 239 239 238 238 237 237 238 237 239 228 211 212 220 223 229 236 229 201 189 192 198 208 214 213 213 213 214 219 218 221 237 245 243 241
261 261 261 262 262 261 261 261 262 263 264 265 265 265 264 264 265 267 268 267 270 270 263 262 260 249 236 236 238 243 243 234 232 235 234 237 240 242 238 228 221 218 220 224 224 225 230 234 236 237 238 236 235 237 238 238 237 237 234 230 233 234 238 231 214 213 217 217 223 229 212 187 185 196 206 208 212 215 218 218 219 219 217 219 231 239 239 238
261 261 261 261 262 261 261 261 262 262 263 263 263 264 264 265 266 268 267 268 273 271 261 256 255 245 234 233 232 235 239 232 229 234 233 235 240 242 239 229 222 220 223 224 224 224 228 232 233 234 235 234 233 233 235 236 235 235 230 228 230 230 235 232 215 211 217 216 217 220 208 192 192 204 213 213 213 217 222 223 222 222 219 222 230 236 239 244
261 261 260 260 261 261 261 262 263 262 262 262 263 263 264 266 267 267 266 268 273 271 260 244 241 235 226 229 229 229 233 230 229 232 230 231 235 237 236 227 222 224 225 223 223 224 226 229 229 229 231 231 230 230 230 231 230 229 226 226 227 226 228 226 214 209 214 214 211 213 210 203 204 211 215 217 217 220 226 227 226 227 226 226 232 238 242 250
262 261 261 260 260 261 263 264 264 263 263 262 262 262 263 264 264 262 262 262 263 260 248 230 228 226 218 218 223 225 229 229 229 231 228 227 230 230 227 221 219 224 224 220 222 225 225 226 228 229 230 230 230 229 229 228 225 219 219 224 226 224 222 218 212 208 211 211 204 206 213 212 212 212 212 216 220 223 227 229 229 229 229 230 234 238 243 253
262 261 261 261 261 262 264 265 264 264 264 262 261 260 261 261 258 257 257 255 252 247 238 229 229 227 217 207 208 214 219 222 225 224 221 222 225 224 220 218 218 222 221 215 220 226 224 224 229 230 229 227 227 229 230 230 224 211 213 220 222 221 218 213 208 205 210 209 196 199 211 210 206 207 209 215 221 224 226 229 232 231 231 234 237 240 246 256
261 260 261 262 262 263 264 265 264 263 262 261 260 259 259 257 255 255 254 248 242 238 233 228 228 228 219 206 202 203 208 219 223 218 214 219 224 224 224 224 224 225 222 215 218 225 225 225 229 229 227 226 226 227 227 227 223 214 213 216 218 218 216 212 207 204 209 206 192 197 207 204 200 202 208 214 220 226 229 232 234 235 234 235 238 242 250 257
259 260 261 261 262 262 262 262 263 262 261 259 259 259 257 255 255 255 248 237 232 231 229 227 225 224 220 213 208 205 206 215 222 220 216 219 223 223 226 228 227 227 223 215 218 225 226 227 228 227 227 228 227 225 220 216 216 215 214 215 215 215 214 212 208 206 209 204 194 200 207 204 201 203 208 213 220 226 229 231 233 235 235 235 239 246 251 253
258 260 262 261 260 259 259 260 261 261 259 258 257 257 256 255 253 247 237 229 227 227 225 223 221 222 221 216 211 209 210 213 219 221 218 220 221 218 220 225 225 225 221 212 213 219 223 225 227 227 228 228 229 225 216 211 215 219 218 218 217 215 214 211 208 208 211 205 199 205 212 209 206 206 208 212 219 225 227 230 233 235 239 241 245 250 250 245
259 261 261 261 259 258 258 258 261 261 258 257 256 255 255 253 246 234 228 225 224 223 219 214 216 220 221 217 210 209 212 214 218 219 217 220 221 216 218 223 225 225 222 217 213 212 214 219 223 225 226 227 227 223 216 212 216 222 224 224 221 219 217 212 210 214 216 212 207 211 218 219 215 214 214 215 221 227 230 234 237 240 246 250 251 252 245 235
259 259 259 260 260 261 260 259 261 261 259 256 255 256 253 247 237 229 226 224 221 219 214 209 212 217 220 219 213 211 211 214 220 221 218 217 217 215 216 220 224 224 222 221 218 214 212 213 216 218 223 223 212 204 209 209 209 213 218 222 223 222 221 216 213 217 219 217 215 217 223 226 226 226 226 225 228 232 235 239 242 244 248 251 252 249 238 227
258 257 258 260 262 262 260 259 259 260 259 256 254 254 250 244 237 231 227 226 224 219 213 210 212 216 219 220 219 218 216 215 218 222 220 216 213 211 212 215 220 220 218 219 217 215 211 207 209 212 215 212 198 192 200 203 207 212 215 219 221 219 220 217 214 218 220 220 220 222 227 232 235 237 237 232 227 227 232 240 243 244 245 245 242 238 231 229
255 256 258 260 260 260 259 259 258 259 259 258 255 253 249 246 241 234 231 230 229 224 215 211 213 216 218 219 220 221 219 216 216 218 219 217 214 213 212 213 216 216 215 214 213 213 208 198 200 208 209 206 203 203 204 202 206 211 214 219 219 218 221 218 215 218 222 224 226 226 230 235 239 242 243 238 230 225 232 244 246 244 243 241 235 231 231 235
252 254 256 258 260 260 261 261 261 261 260 259 257 254 251 249 245 240 237 235 233 228 218 212 214 216 217 220 221 220 218 217 218 218 218 218 218 217 215 214 216 215 213 213 214 214 209 197 195 203 209 209 206 206 207 207 208 207 209 216 217 217 222 223 220 220 222 225 229 231 233 237 242 246 247 246 240 235 238 245 247 245 241 237 237 236 236 238
253 254 255 258 261 263 264 265 265 265 264 262 259 255 250 249 248 245 240 237 236 232 221 214 214 216 216 220 224 222 217 217 219 218 218 221 220 217 216 216 216 215 213 213 215 216 210 200 196 201 209 210 206 205 208 211 211 207 208 213 215 216 219 221 223 224 225 227 231 235 239 242 245 248 250 250 245 239 239 239 237 237 236 234 235 240 243 243
253 254 255 257 260 263 265 267 267 266 264 263 260 256 251 247 246 244 239 236 235 232 224 217 216 215 214 217 223 223 218 218 219 215 214 221 223 219 216 216 215 214 214 214 216 217 214 206 200 202 208 209 205 205 208 211 212 210 212 214 214 215 218 220 223 224 225 228 232 235 240 242 244 245 246 246 240 236 239 239 231 227 229 232 235 241 247 245
253 255 257 256 257 263 268 271 272 270 268 265 262 258 252 247 245 243 239 234 232 229 225 220 217 216 214 215 219 222 220 219 220 217 213 215 221 220 218 216 215 214 215 217 218 218 217 212 203 203 208 209 207 208 209 211 213 213 216 218 214 214 219 222 223 224 224 226 228 232 237 241 241 239 240 239 236 236 239 243 241 236 231 229 229 232 236 237
247 249 254 259 265 273 280 281 280 278 276 272 268 263 257 251 247 245 241 235 230 227 224 222 219 218 217 216 216 219 220 219 220 221 217 213 216 219 219 219 219 218 218 219 219 218 219 216 206 204 210 212 211 213 212 212 214 214 218 220 217 216 220 223 223 224 225 226 227 230 236 240 239 239 239 237 238 240 240 242 248 248 237 228 225 225 227 231
240 246 255 265 278 284 287 286 281 277 276 276 274 269 263 255 249 246 243 237 231 227 224 222 222 221 220 218 216 217 219 219 221 224 223 217 214 216 219 220 222 223 223 222 221 220 221 220 210 206 212 215 215 216 215 214 215 217 219 221 220 219 222 225 226 226 228 229 230 232 236 239 241 243 243 241 243 245 245 247 251 250 241 230 222 219 222 227
244 258 266 276 285 290 293 290 281 273 273 275 277 279 277 269 258 251 246 240 233 229 226 223 222 223 222 221 219 217 218 221 224 228 229 226 219 216 218 219 221 225 226 226 226 223 222 222 216 210 213 218 219 219 218 216 216 219 222 223 223 223 223 224 227 229 231 233 232 233 235 237 241 245 246 247 248 249 252 253 252 251 245 229 214 213 220 230
256 270 278 285 292 298 301 295 279 268 266 267 274 284 287 284 274 260 252 245 237 231 228 224 223 223 224 223 223 222 221 223 227 231 234 234 229 224 222 222 222 226 228 229 230 228 224 224 221 216 217 221 223 224 223 220 219 222 225 225 225 226 227 225 225 228 232 235 235 235 237 240 243 245 246 248 249 249 251 249 250 252 243 226 216 219 226 234
266 277 284 290 296 302 307 301 280 263 260 265 274 283 287 285 279 267 256 251 244 236 230 227 224 224 225 224 224 225 226 226 228 232 235 236 234 230 229 229 228 229 231 232 233 230 227 225 223 220 221 224 227 230 230 226 224 225 227 228 228 228 230 229 227 228 231 234 236 237 238 241 245 249 249 249 247 246 246 248 252 251 235 224 227 229 227 233
272 284 290 293 299 308 316 312 287 264 261 269 278 285 287 284 279 268 256 250 247 241 234 229 226 225 225 225 224 225 226 226 227 230 233 235 235 233 232 232 231 231 232 234 234 231 229 229 227 224 224 226 229 232 234 233 231 229 229 231 231 231 231 233 233 232 233 234 235 238 239 241 245 249 250 250 249 249 249 250 254 253 245 246 249 241 235 242
286 297 297 298 305 319 327 321 298 272 264 268 277 283 285 283 279 270 257 248 245 243 237 231 227 225 225 225 224 223 224 225 225 227 231 233 234 235 233 231 230 230 231 233 233 231 231 232 233 230 226 227 231 233 235 236 236 235 233 231 231 232 232 232 235 237 238 238 238 239 241 242 245 248 250 251 252 251 251 251 252 255 257 255 251 250 256 258
304 307 303 304 315 331 334 323 302 278 268 270 280 287 287 287 285 274 258 245 240 239 237 231 227 225 224 224 224 223 223 225 226 227 229 230 231 233 233 231 230 232 235 236 234 232 232 233 236 235 230 228 231 233 234 236 237 238 237 234 232 232 232 233 235 238 240 241 242 242 242 243 245 247 249 252 252 252 252 253 253 254 256 252 250 260 271 269
309 308 307 315 328 336 337 330 309 283 277 285 294 295 292 292 292 280 259 244 237 235 233 230 227 224 223 223 223 222 222 224 226 228 229 229 229 230 233 234 234 234 235 236 235 233 233 234 236 237 234 231 232 235 236 236 236 238 240 240 238 235 235 237 240 241 241 241 242 243 244 245 247 249 249 250 252 252 253 255 256 253 253 255 260 268 272 268
307 308 314 327 338 340 340 337 321 296 291 300 305 305 304 301 298 289 268 246 233 229 229 227 225 223 222 222 221 221 221 223 226 229 230 229 228 228 229 232 233 232 231 232 233 232 232 232 233 235 234 233 234 238 241 240 239 239 240 242 243 241 239 239 243 246 245 242 242 244 246 248 250 252 252 251 251 251 251 250 250 250 252 257 262 267 267 264
307 316 323 336 343 341 341 340 331 314 304 309 316 318 315 309 300 290 280 250 225 222 224 223 222 220 218 218 218 219 220 222 225 228 230 230 230 230 230 231 231 230 229 229 230 232 230 227 228 230 232 233 235 239 241 242 242 240 239 240 243 244 243 243 243 245 246 244 243 244 247 248 249 251 252 252 251 251 250 248 247 249 252 255 259 263 265 265
Height
5751 5752 5752 5753 5754 5754 5755 5755 5756 5757 5757 5758 5759 5759 5760 5761 5761 5762 5763 5763 5764 5764 5765 5765 5766 5766 5766 5766 5767 5767 5767 5767 5767 5767 5767 5767 5767 5767 5767 5766 5766 5766 5767 5766 5766 5767 5767 5767 5768 5768 5769 5770 5770 5770 5770 5771 5771 5773 5774 5777 5780 5784 5786 5787 5787 5787 5789 5789 5788 5788 5789 5790 5792 5792 5793 5794 5796 5797 5798 5799 5799 5801 5801 5802 5804 5804 5805 5806
5748 5749 5749 5750 5751 5751 5752 5752 5753 5754 5754 5755 5756 5756 5757 5758 5759 5759 5760 5760 5761 5761 5762 5762 5763 5763 5763 5763 5763 5764 5764 5764 5764 5764 5764 5764 5764 5764 5764 5763 5762 5763 5763 5763 5763 5763 5764 5764 5765 5765 5766 5766 5767 5767 5767 5768 5769 5770 5772 5774 5779 5782 5783 5784 5784 5785 5787 5786 5785 5786 5786 5786 5788 5789 5790 5791 5794 5794 5795 5796 5797 5799 5799 5800 5802 5803 5804 5804
5745 5746 5746 5747 5748 5748 5749 5749 5750 5751 5751 5752 5753 5753 5754 5755 5756 5756 5757 5757 5758 5758 5759 5759 5760 5760 5760 5760 5760 5760 5761 5760 5760 5760 5760 5761 5761 5761 5761 5760 5759 5760 5760 5760 5760 5760 5761 5761 5762 5762 5762 5763 5763 5764 5764 5765 5766 5767 5768 5772 5777 5780 5780 5780 5781 5783 5784 5783 5782 5783 5783 5783 5784 5786 5786 5788 5790 5791 5792 5794 5795 5797 5796 5797 5800 5801 5802 5801
5742 5742 5743 5744 5744 5745 5746 5746 5747 5748 5748 5749 5750 5750 5751 5752 5752 5753 5754 5754 5755 5755 5756 5756 5757 5757 5757 5757 5757 5757 5757 5757 5757 5757 5757 5757 5757 5757 5757 5757 5756 5757 5757 5757 5757 5757 5758 5758 5758 5759 5759 5760 5760 5761 5762 5763 5763 5764 5766 5770 5775 5776 5776 5776 5777 5779 5780 5780 5780 5780 5780 5781 5782 5782 5783 5785 5787 5789 5790 5791 5793 5793 5794 5796 5798 5799 5799 5799
5738 5739 5740 5740 5741 5742 5742 5743 5744 5744 5745 5746 5746 5747 5748 5748 5749 5750 5751 5751 5752 5752 5753 5753 5753 5754 5754 5754 5754 5754 5754 5754 5754 5754 5754 5754 5754 5754 5754 5754 5754 5754 5754 5754 5754 5754 5755 5755 5755 5756 5757 5757 5757 5758 5760 5760 5760 5760 5763 5768 5772 5773 5773 5774 5774 5775 5777 5777 5777 5778 5778 5778 5779 5780 5781 5782 5785 5786 5787 5789 5790 5790 5792 5794 5796 5796 5797 5796
5735 5736 5736 5737 5737 5738 5739 5739 5740 5741 5742 5742 5743 5744 5744 5745 5746 5747 5747 5748 5749 5749 5750 5750 5750 5750 5750 5751 5750 5751 5751 5750 5751 5751 5751 5751 5751 5751 5750 5750 5750 5750 5750 5750 5751 5751 5752 5752 5753 5753 5754 5754 5754 5756 5757 5756 5756 5757 5761 5765 5768 5770 5771 5771 5771 5771 5773 5775 5775 5776 5776 5776 5777 5778 5779 5780 5782 5784 5785 5787 5788 5788 5790 5792 5794 5795 5794 5794
5732 5732 5733 5733 5734 5734 5735 5736 5737 5737 5738 5739 5739 5740 5741 5742 5742 5743 5744 5744 5745 5746 5746 5747 5747 5747 5747 5748 5748 5748 5748 5748 5748 5748 5748 5748 5748 5748 5747 5747 5747 5747 5747 5747 5748 5748 5749 5750 5750 5751 5751 5751 5752 5753 5753 5752 5752 5755 5759 5763 5766 5767 5769 5769 5769 5769 5770 5772 5772 5773 5773 5774 5775 5776 5776 5778 5780 5782 5784 5785 5786 5786 5788 5790 5792 5792 5792 5792
5728 5729 5729 5730 5730 5731 5731 5732 5733 5733 5734 5735 5736 5737 5737 5738 5739 5739 5740 5741 5742 5742 5743 5743 5744 5744 5744 5744 5745 5745 5745 5745 5745 5745 5745 5745 5744 5744 5744 5744 5744 5744 5745 5745 5745 5746 5747 5748 5748 5748 5748 5749 5749 5750 5750 5749 5750 5753 5758 5760 5762 5763 5765 5765 5765 5766 5767 5768 5769 5770 5771 5772 5773 5773 5774 5776 5777 5779 5781 5782 5783 5785 5787 5788 5789 5790 5791 5791
5725 5725 5725 5726 5727 5727 5728 5728 5729 5730 5730 5731 5732 5733 5733 5734 5735 5736 5737 5737 5738 5739 5739 5740 5740 5741 5741 5741 5741 5741 5742 5742 5742 5742 5742 5742 5741 5741 5741 5742 5742 5742 5742 5742 5743 5744 5744 5745 5745 5745 5746 5746 5746 5748 5747 5746 5748 5752 5755 5756 5757 5759 5761 5761 5761 5762 5764 5765 5766 5767 5769 5770 5770 5770 5772 5774 5776 5778 5779 5780 5781 5783 5784 5785 5787 5788 5789 5790
5721 5722 5722 5722 5723 5724 5724 5725 5725 5726 5726 5727 5728 5729 5730 5730 5731 5732 5733 5734 5734 5735 5736 5737 5737 5737 5737 5738 5738 5738 5739 5739 5739 5739 5739 5739 5739 5738 5738 5738 5739 5739 5739 5740 5741 5741 5741 5741 5742 5742 5744 5744 5745 5746 5745 5745 5747 5750 5752 5753 5755 5757 5759 5760 5760 5762 5763 5764 5764 5766 5767 5768 5768 5768 5771 5773 5775 5776 5777 5779 5780 5781 5782 5783 5785 5786 5788 5789
5718 5718 5718 5719 5719 5720 5721 5721 5722 5722 5723 5723 5724 5725 5726 5727 5728 5728 5729 5730 5731 5732 5732 5733 5733 5733 5734 5734 5734 5735 5736 5736 5736 5736 5736 5736 5736 5735 5735 5735 5736 5736 5737 5738 5738 5738 5738 5739 5740 5741 5742 5742 5743 5743 5743 5744 5746 5747 5749 5751 5753 5755 5757 5759 5760 5762 5762 5763 5763 5765 5766 5766 5766 5767 5770 5772 5773 5775 5777 5778 5779 5780 5781 5782 5783 5785 5786 5787
5715 5715 5715 5715 5716 5716 5717 5718 5718 5719 5719 5720 5720 5721 5722 5723 5724 5724 5725 5726 5727 5728 5729 5729 5729 5730 5730 5730 5730 5731 5732 5733 5732 5733 5732 5732 5732 5732 5732 5732 5733 5733 5734 5735 5735 5735 5735 5736 5738 5739 5740 5740 5741 5742 5742 5743 5744 5745 5747 5749 5751 5753 5755 5757 5759 5760 5761 5762 5763 5763 5764 5764 5765 5766 5769 5772 5774 5775 5777 5777 5778 5778 5779 5780 5781 5783 5784 5785
5712 5712 5712 5712 5712 5713 5713 5714 5715 5715 5716 5716 5717 5717 5718 5719 5720 5720 5721 5722 5723 5724 5725 5725 5725 5726 5727 5726 5727 5729 5729 5729 5729 5729 5729 5728 5729 5729 5729 5729 5730 5730 5731 5732 5732 5732 5733 5734 5736 5736 5737 5738 5740 5740 5740 5742 5742 5744 5745 5747 5750 5751 5754 5757 5758 5759 5760 5761 5761 5761 5762 5764 5765 5766 5769 5772 5774 5775 5775 5776 5776 5776 5777 5779 5779 5781 5782 5783
5708 5708 5708 5709 5709 5709 5710 5710 5711 5712 5712 5713 5713 5714 5714 5715 5716 5716 5717 5718 5719 5720 5721 5721 5721 5722 5723 5722 5723 5726 5725 5725 5726 5725 5725 5725 5726 5726 5726 5726 5727 5728 5728 5729 5729 5729 5730 5731 5733 5734 5735 5737 5738 5738 5739 5739 5740 5742 5743 5745 5748 5750 5753 5755 5756 5757 5758 5760 5760 5759 5760 5763 5765 5766 5769 5772 5773 5773 5774 5774 5774 5774 5776 5778 5778 5779 5781 5782
5705 5705 5705 5705 5706 5706 5706 5707 5707 5708 5709 5709 5709 5710 5711 5711 5712 5712 5713 5714 5715 5716 5717 5718 5718 5718 5719 5718 5720 5722 5722 5722 5722 5722 5723 5723 5723 5723 5723 5723 5724 5724 5725 5726 5726 5727 5727 5729 5731 5732 5734 5735 5735 5736 5737 5737 5738 5740 5741 5744 5746 5748 5751 5753 5753 5754 5756 5758 5758 5758 5759 5762 5764 5764 5767 5770 5770 5771 5771 5772 5772 5772 5774 5776 5777 5778 5780 5781
5701 5702 5702 5702 5702 5703 5703 5703 5704 5704 5705 5706 5706 5706 5707 5707 5708 5708 5709 5710 5711 5712 5713 5713 5714 5715 5715 5715 5716 5718 5718 5718 5719 5719 5720 5719 5719 5719 5719 5720 5721 5722 5722 5723 5724 5724 5725 5726 5729 5730 5731 5732 5733 5734 5735 5735 5737 5738 5740 5742 5744 5746 5748 5750 5750 5752 5753 5754 5755 5755 5756 5759 5761 5762 5765 5767 5767 5768 5769 5770 5771 5771 5772 5774 5776 5777 5778 5780
5698 5698 5699 5699 5699 5699 5700 5700 5701 5701 5702 5702 5702 5702 5703 5703 5704 5704 5705 5706 5707 5708 5709 5709 5710 5711 5711 5712 5713 5714 5714 5715 5716 5716 5716 5716 5716 5716 5716 5717 5717 5718 5719 5719 5721 5722 5722 5724 5726 5728 5729 5730 5731 5732 5733 5734 5736 5737 5738 5740 5741 5743 5745 5747 5748 5749 5749 5750 5751 5752 5753 5755 5758 5760 5762 5764 5764 5765 5766 5768 5769 5769 5770 5772 5774 5775 5777 5778
5695 5695 5695 5695 5696 5696 5697 5697 5697 5698 5698 5698 5698 5698 5699 5699 5700 5701 5702 5703 5704 5705 5705 5706 5707 5708 5708 5709 5710 5710 5711 5712 5713 5713 5713 5713 5713 5713 5714 5713 5714 5715 5716 5717 5718 5720 5721 5722 5724 5725 5727 5728 5729 5730 5731 5734 5735 5735 5735 5737 5738 5739 5741 5744 5745 5745 5745 5745 5745 5746 5748 5750 5754 5757 5759 5760 5761 5762 5764 5765 5766 5767 5768 5770 5772 5774 5775 5776
5691 5691 5692 5692 5693 5693 5694 5694 5694 5694 5694 5694 5694 5694 5695 5696 5697 5698 5699 5700 5701 5701 5701 5702 5703 5704 5705 5705 5706 5706 5708 5708 5709 5709 5709 5710 5710 5710 5710 5710 5711 5712 5713 5715 5717 5718 5718 5720 5721 5722 5725 5726 5727 5728 5730 5731 5732 5731 5732 5733 5735 5736 5738 5741 5743 5742 5741 5741 5742 5743 5745 5748 5751 5755 5757 5756 5757 5759 5760 5762 5763 5764 5766 5768 5770 5771 5772 5773
5688 5688 5689 5689 5689 5690 5690 5691 5691 5691 5690 5690 5690 5691 5692 5693 5694 5695 5696 5697 5697 5697 5697 5698 5699 5700 5701 5701 5701 5703 5704 5705 5705 5706 5706 5707 5707 5707 5708 5708 5709 5710 5712 5713 5714 5715 5716 5717 5719 5721 5723 5724 5724 5725 5727 5728 5729 5729 5729 5731 5733 5734 5736 5739 5740 5740 5739 5740 5742 5743 5745 5746 5749 5754 5755 5753 5753 5754 5757 5758 5760 5762 5764 5766 5768 5769 5770 5771
5684 5685 5685 5686 5686 5687 5687 5687 5687 5687 5687 5686 5687 5688 5689 5690 5690 5691 5692 5693 5693 5693 5693 5694 5694 5696 5697 5697 5697 5700 5701 5701 5702 5703 5703 5704 5704 5705 5705 5706 5707 5708 5710 5711 5711 5713 5714 5716 5718 5720 5721 5721 5721 5722 5723 5725 5726 5727 5728 5729 5731 5733 5735 5736 5737 5736 5737 5738 5740 5742 5743 5744 5748 5752 5752 5750 5750 5751 5754 5756 5758 5760 5762 5764 5766 5767 5768 5769
5681 5681 5682 5682 5683 5683 5684 5684 5684 5684 5684 5684 5684 5685 5685 5686 5687 5687 5688 5688 5689 5688 5689 5690 5690 5693 5694 5693 5693 5696 5698 5699 5700 5700 5700 5701 5701 5702 5703 5703 5705 5707 5708 5708 5709 5711 5712 5715 5717 5717 5717 5718 5719 5720 5721 5723 5724 5725 5726 5727 5729 5732 5733 5734 5734 5734 5734 5735 5738 5739 5739 5742 5746 5748 5747 5747 5748 5750 5752 5754 5756 5759 5760 5762 5764 5765 5766 5767
5678 5678 5679 5679 5680 5680 5681 5681 5681 5681 5681 5681 5682 5682 5682 5683 5683 5683 5683 5685 5686 5684 5685 5686 5687 5688 5690 5690 5690 5693 5695 5697 5697 5697 5697 5698 5699 5699 5700 5702 5703 5704 5705 5706 5707 5709 5711 5713 5714 5713 5714 5715 5717 5718 5719 5721 5722 5723 5724 5726 5728 5730 5730 5732 5732 5732 5731 5733 5736 5736 5736 5740 5743 5744 5744 5745 5746 5748 5750 5752 5754 5756 5758 5761 5763 5763 5764 5764
5674 5675 5675 5676 5676 5677 5677 5678 5678 5678 5678 5678 5679 5678 5678 5679 5679 5679 5680 5682 5683 5682 5681 5682 5683 5685 5687 5687 5686 5688 5692 5694 5695 5695 5695 5696 5696 5696 5698 5700 5701 5702 5703 5705 5706 5707 5709 5710 5710 5711 5712 5714 5715 5716 5717 5719 5720 5721 5722 5724 5727 5727 5728 5730 5730 5729 5730 5731 5733 5734 5734 5738 5740 5741 5742 5743 5744 5746 5747 5749 5751 5753 5756 5759 5760 5760 5761 5762
5671 5672 5672 5673 5673 5674 5674 5674 5675 5675 5675 5675 5676 5675 5675 5675 5675 5676 5677 5678 5680 5679 5678 5678 5680 5683 5684 5683 5684 5685 5689 5692 5693 5693 5693 5694 5693 5693 5695 5697 5698 5700 5702 5703 5703 5705 5707 5707 5708 5710 5711 5712 5713 5714 5715 5717 5718 5719 5721 5723 5724 5725 5726 5727 5728 5727 5728 5729 5730 5732 5733 5736 5738 5740 5741 5741 5743 5744 5745 5747 5748 5751 5754 5757 5758 5758 5759 5761
5668 5669 5669 5669 5670 5670 5671 5671 5671 5672 5672 5673 5672 5671 5672 5672 5672 5674 5675 5675 5676 5676 5675 5675 5676 5679 5680 5681 5682 5683 5685 5689 5690 5689 5690 5691 5691 5691 5692 5694 5696 5698 5699 5699 5701 5703 5705 5705 5707 5708 5709 5710 5711 5712 5713 5715 5716 5717 5719 5720 5721 5722 5723 5724 5725 5725 5726 5728 5729 5730 5732 5734 5737 5738 5739 5740 5741 5742 5744 5745 5747 5750 5752 5754 5756 5757 5759 5760
5665 5665 5666 5666 5666 5667 5667 5668 5668 5669 5669 5669 5669 5668 5668 5669 5670 5672 5671 5672 5673 5673 5673 5673 5673 5675 5677 5678 5679 5681 5683 5685 5686 5686 5688 5689 5689 5689 5691 5693 5695 5696 5696 5697 5700 5702 5702 5703 5705 5705 5706 5707 5709 5710 5711 5713 5714 5715 5716 5717 5718 5719 5720 5721 5723 5723 5724 5726 5727 5728 5730 5733 5735 5736 5737 5738 5739 5741 5742 5744 5746 5748 5750 5752 5754 5756 5757 5759
5662 5662 5662 5663 5663 5663 5663 5664 5665 5665 5666 5666 5666 5666 5665 5666 5668 5669 5669 5670 5670 5670 5670 5670 5670 5671 5673 5675 5677 5678 5679 5681 5683 5684 5686 5687 5686 5687 5689 5691 5693 5693 5693 5696 5698 5699 5700 5701 5702 5702 5703 5705 5707 5708 5708 5710 5712 5713 5713 5713 5715 5715 5717 5718 5720 5722 5723 5724 5726 5727 5729 5732 5733 5734 5735 5736 5737 5739 5741 5742 5744 5746 5748 5751 5752 5754 5756 5757
5658 5658 5659 5660 5660 5659 5660 5661 5661 5662 5662 5663 5663 5662 5663 5664 5665 5665 5666 5668 5668 5668 5667 5667 5667 5668 5670 5672 5674 5676 5677 5679 5680 5681 5683 5684 5684 5686 5687 5689 5689 5689 5690 5694 5696 5696 5697 5699 5699 5700 5702 5704 5705 5705 5706 5707 5709 5710 5710 5711 5712 5713 5714 5716 5718 5720 5720 5721 5724 5726 5727 5730 5731 5732 5733 5734 5735 5737 5739 5741 5743 5745 5747 5749 5751 5753 5754 5755
5655 5655 5655 5656 5656 5656 5657 5657 5658 5658 5659 5659 5659 5659 5660 5661 5661 5662 5664 5666 5666 5665 5665 5665 5666 5666 5668 5669 5671 5673 5674 5676 5677 5678 5680 5681 5682 5683 5684 5685 5685 5685 5688 5691 5693 5694 5695 5696 5696 5698 5701 5702 5702 5703 5704 5706 5707 5707 5708 5708 5710 5711 5712 5713 5715 5717 5718 5719 5722 5724 5725 5727 5728 5729 5730 5732 5733 5736 5738 5739 5741 5743 5745 5747 5749 5751 5752 5753
5652 5652 5652 5653 5653 5653 5653 5654 5654 5655 5656 5656 5656 5656 5657 5658 5658 5659 5662 5663 5663 5662 5663 5664 5665 5665 5666 5666 5667 5669 5671 5672 5674 5676 5678 5678 5679 5681 5682 5683 5683 5684 5687 5690 5691 5691 5692 5693 5695 5697 5699 5700 5700 5701 5703 5704 5705 5705 5705 5706 5707 5708 5709 5710 5713 5715 5715 5718 5721 5722 5723 5725 5726 5727 5729 5730 5732 5734 5736 5738 5739 5741 5743 5745 5747 5749 5750 5751
5648 5649 5649 5649 5650 5650 5651 5651 5651 5652 5652 5653 5653 5653 5654 5654 5656 5657 5659 5659 5659 5659 5660 5661 5662 5663 5664 5665 5665 5666 5667 5669 5670 5672 5675 5676 5678 5679 5681 5681 5682 5683 5685 5688 5690 5690 5690 5692 5694 5695 5697 5698 5699 5699 5701 5702 5703 5703 5703 5704 5704 5705 5707 5708 5711 5712 5714 5716 5719 5721 5721 5723 5725 5726 5727 5729 5731 5732 5734 5736 5737 5739 5741 5743 5744 5746 5748 5748
5645 5646 5646 5646 5647 5647 5648 5648 5647 5648 5649 5650 5650 5650 5651 5652 5653 5655 5655 5655 5655 5656 5657 5658 5660 5661 5662 5664 5664 5664 5665 5666 5667 5669 5672 5673 5675 5677 5678 5678 5679 5681 5683 5685 5687 5688 5689 5691 5692 5693 5695 5696 5697 5698 5699 5700 5701 5701 5701 5702 5702 5703 5704 5706 5709 5711 5712 5715 5717 5719 5720 5721 5723 5725 5726 5728 5729 5730 5732 5733 5735 5737 5739 5740 5742 5743 5743 5743
5643 5643 5643 5643 5644 5644 5645 5645 5645 5646 5647 5647 5647 5647 5648 5650 5651 5651 5651 5651 5652 5652 5653 5655 5657 5658 5659 5661 5663 5663 5663 5663 5664 5666 5669 5671 5672 5674 5675 5676 5678 5679 5681 5682 5683 5685 5687 5688 5690 5692 5693 5694 5696 5697 5697 5698 5699 5699 5700 5700 5701 5702 5703 5705 5708 5709 5711 5713 5715 5717 5717 5719 5721 5723 5725 5727 5728 5729 5730 5731 5732 5734 5736 5738 5739 5740 5740 5741
5640 5640 5640 5640 5641 5642 5642 5643 5642 5643 5644 5644 5644 5645 5646 5647 5647 5647 5647 5647 5648 5649 5650 5653 5654 5655 5656 5658 5659 5660 5660 5661 5662 5664 5666 5668 5670 5672 5674 5675 5676 5677 5678 5679 5681 5683 5685 5686 5688 5690 5691 5692 5694 5695 5695 5696 5697 5698 5699 5699 5701 5702 5703 5704 5706 5708 5709 5711 5713 5714 5715 5716 5718 5721 5724 5726 5727 5728 5729 5729 5730 5731 5733 5735 5737 5738 5739 5740
5638 5637 5637 5638 5639 5639 5640 5640 5640 5640 5641 5642 5642 5642 5643 5643 5644 5644 5644 5644 5645 5646 5648 5650 5651 5652 5653 5655 5656 5656 5657 5659 5660 5662 5664 5666 5668 5670 5671 5672 5672 5674 5675 5677 5679 5680 5682 5684 5686 5687 5689 5690 5692 5692 5693 5694 5695 5696 5697 5699 5700 5701 5702 5703 5704 5706 5707 5709 5711 5712 5713 5714 5716 5718 5721 5724 5725 5726 5727 5727 5728 5729 5731 5733 5734 5736 5737 5737
5635 5635 5635 5636 5637 5637 5637 5637 5638 5638 5638 5639 5640 5640 5640 5640 5641 5641 5641 5641 5642 5644 5647 5648 5648 5649 5650 5651 5652 5654 5656 5657 5658 5659 5661 5663 5665 5667 5668 5668 5669 5671 5673 5674 5676 5677 5680 5682 5684 5685 5687 5688 5689 5690 5691 5692 5693 5694 5696 5698 5699 5700 5700 5701 5702 5704 5705 5707 5708 5710 5711 5712 5713 5715 5718 5721 5723 5724 5725 5726 5727 5728 5729 5731 5732 5733 5733 5734
5633 5633 5634 5634 5634 5634 5635 5635 5635 5636 5636 5636 5637 5637 5638 5638 5638 5638 5639 5639 5640 5642 5644 5645 5645 5646 5647 5648 5649 5651 5653 5654 5655 5656 5657 5659 5662 5664 5666 5666 5667 5668 5670 5672 5674 5675 5677 5680 5681 5682 5684 5685 5686 5688 5689 5690 5690 5692 5694 5695 5697 5698 5699 5700 5701 5702 5703 5705 5706 5707 5709 5710 5711 5713 5715 5718 5720 5722 5722 5723 5724 5726 5727 5728 5729 5730 5731 5731
5631 5631 5632 5632 5632 5632 5633 5633 5633 5633 5633 5633 5634 5634 5635 5635 5635 5636 5637 5638 5638 5640 5642 5643 5643 5644 5645 5646 5647 5649 5651 5652 5652 5654 5655 5656 5659 5661 5663 5664 5665 5666 5668 5670 5671 5673 5675 5678 5679 5680 5682 5683 5685 5686 5687 5688 5689 5691 5692 5693 5694 5696 5697 5698 5699 5700 5702 5703 5704 5705 5706 5708 5710 5712 5714 5716 5717 5718 5719 5720 5721 5722 5723 5724 5725 5727 5728 5729
5629 5629 5630 5630 5630 5630 5631 5631 5631 5631 5630 5630 5630 5631 5632 5632 5632 5632 5634 5635 5636 5638 5640 5641 5641 5642 5643 5643 5644 5646 5648 5650 5650 5651 5653 5654 5656 5659 5661 5662 5663 5664 5666 5668 5669 5670 5673 5675 5677 5678 5679 5681 5683 5684 5685 5686 5688 5689 5690 5691 5692 5694 5695 5696 5697 5698 5700 5701 5702 5703 5704 5706 5708 5711 5712 5713 5713 5715 5716 5717 5717 5716 5717 5719 5722 5724 5726 5728
5627 5627 5628 5628 5629 5629 5629 5628 5628 5628 5628 5627 5627 5628 5628 5628 5628 5628 5630 5631 5633 5634 5636 5637 5638 5639 5640 5640 5641 5643 5645 5647 5648 5649 5650 5652 5654 5657 5659 5660 5661 5662 5664 5665 5667 5668 5670 5672 5674 5676 5676 5678 5680 5681 5682 5684 5685 5687 5688 5689 5691 5692 5693 5694 5695 5696 5697 5698 5700 5701 5702 5704 5707 5709 5710 5711 5711 5712 5713 5714 5715 5714 5715 5717 5719 5720 5723 5726
5626 5626 5626 5626 5626 5626 5626 5626 5625 5625 5624 5624 5624 5624 5624 5625 5625 5625 5626 5628 5629 5630 5632 5633 5635 5635 5636 5638 5639 5640 5642 5644 5645 5647 5648 5650 5652 5654 5656 5657 5659 5660 5661 5662 5664 5666 5667 5669 5672 5673 5674 5675 5677 5678 5680 5681 5683 5684 5685 5687 5689 5690 5691 5692 5693 5694 5695 5696 5698 5699 5700 5701 5704 5706 5708 5709 5709 5710 5710 5712 5713 5714 5715 5717 5717 5718 5720 5722
5624 5625 5625 5625 5624 5624 5624 5623 5622 5622 5621 5620 5620 5620 5620 5621 5621 5621 5622 5624 5625 5626 5627 5629 5630 5631 5633 5635 5637 5638 5640 5641 5643 5644 5646 5648 5649 5651 5652 5654 5656 5657 5658 5659 5661 5663 5665 5667 5670 5671 5671 5673 5674 5675 5677 5679 5681 5682 5683 5684 5686 5688 5689 5690 5692 5693 5693 5694 5696 5697 5698 5699 5702 5704 5705 5707 5708 5708 5709 5711 5712 5713 5714 5715 5716 5716 5717 5718
5623 5623 5623 5623 5622 5622 5621 5620 5620 5619 5619 5618 5618 5618 5617 5618 5618 5618 5618 5619 5621 5622 5623 5624 5625 5627 5630 5632 5635 5636 5637 5639 5641 5642 5643 5644 5647 5649 5650 5651 5653 5654 5656 5657 5659 5661 5663 5665 5667 5668 5669 5670 5671 5672 5674 5677 5679 5680 5681 5682 5684 5685 5687 5688 5690 5691 5692 5692 5694 5695 5696 5698 5700 5702 5703 5705 5706 5707 5708 5709 5711 5711 5712 5713 5714 5714 5715 5716
5621 5621 5621 5620 5620 5619 5618 5617 5617 5616 5616 5616 5616 5615 5615 5615 5615 5615 5615 5615 5616 5617 5618 5619 5622 5623 5626 5629 5632 5634 5635 5637 5638 5639 5640 5642 5645 5647 5648 5649 5651 5652 5654 5655 5656 5658 5660 5661 5664 5666 5666 5667 5668 5670 5672 5674 5677 5678 5679 5680 5681 5683 5684 5686 5688 5689 5690 5690 5692 5693 5694 5696 5698 5699 5701 5702 5704 5705 5706 5707 5708 5708 5709 5711 5711 5712 5712 5713
5620 5620 5619 5619 5618 5617 5616 5614 5614 5613 5613 5613 5613 5613 5612 5612 5611 5611 5611 5610 5611 5612 5613 5616 5618 5620 5622 5625 5629 5631 5632 5634 5636 5637 5638 5640 5642 5644 5646 5647 5649 5650 5652 5653 5654 5655 5657 5658 5661 5663 5664 5665 5666 5667 5669 5671 5673 5675 5677 5678 5679 5681 5682 5684 5685 5686 5687 5688 5689 5691 5692 5694 5696 5697 5698 5700 5701 5702 5703 5704 5705 5706 5707 5709 5710 5710 5711 5712
5619 5618 5618 5617 5616 5615 5614 5612 5611 5611 5610 5610 5610 5610 5609 5608 5607 5606 5606 5606 5606 5607 5609 5612 5614 5616 5619 5622 5625 5628 5629 5631 5633 5634 5636 5637 5639 5641 5643 5645 5646 5648 5649 5650 5651 5653 5654 5656 5658 5660 5662 5663 5664 5665 5666 5668 5670 5672 5674 5676 5677 5678 5680 5681 5683 5684 5685 5686 5687 5688 5690 5691 5693 5694 5696 5697 5698 5700 5701 5702 5704 5705 5706 5708 5709 5710 5711 5712
5617 5617 5616 5615 5614 5613 5612 5610 5608 5608 5608 5608 5607 5606 5605 5604 5603 5602 5601 5601 5601 5602 5604 5607 5610 5613 5615 5618 5622 5624 5626 5628 5631 5632 5633 5635 5637 5638 5640 5642 5644 5645 5647 5648 5649 5650 5652 5653 5655 5657 5659 5660 5661 5662 5664 5665 5667 5669 5671 5673 5674 5675 5677 5678 5680 5681 5682 5683 5685 5686 5687 5689 5690 5691 5693 5694 5696 5698 5699 5701 5702 5703 5704 5705 5707 5708 5709 5710
5616 5615 5614 5614 5613 5612 5610 5608 5607 5606 5606 5605 5604 5603 5602 5600 5599 5598 5597 5597 5597 5598 5600 5603 5606 5609 5611 5614 5618 5621 5623 5625 5628 5629 5631 5632 5634 5636 5638 5640 5642 5643 5645 5646 5647 5648 5649 5651 5652 5654 5656 5657 5658 5659 5660 5661 5663 5665 5667 5670 5672 5673 5674 5675 5677 5678 5679 5681 5682 5684 5685 5687 5688 5689 5691 5692 5694 5695 5697 5698 5700 5701 5702 5703 5704 5706 5707 5708
5614 5614 5613 5612 5611 5610 5608 5607 5605 5604 5604 5603 5602 5601 5599 5598 5596 5595 5594 5594 5594 5596 5597 5599 5602 5606 5609 5611 5615 5618 5620 5623 5625 5626 5627 5629 5631 5634 5636 5638 5640 5642 5644 5645 5645 5646 5647 5648 5649 5651 5653 5654 5655 5656 5657 5658 5660 5662 5664 5666 5669 5671 5672 5673 5674 5675 5677 5678 5679 5681 5683 5685 5686 5688 5689 5690 5691 5692 5694 5695 5696 5698 5699 5700 5701 5703 5704 5705
5614 5613 5612 5611 5610 5609 5607 5606 5604 5603 5602 5601 5600 5598 5597 5596 5595 5594 5593 5592 5592 5593 5595 5597 5599 5603 5606 5608 5611 5615 5618 5620 5622 5623 5624 5626 5629 5633 5635 5637 5638 5640 5641 5643 5643 5644 5645 5646 5647 5648 5649 5651 5652 5653 5653 5655 5657 5659 5660 5662 5664 5667 5669 5670 5671 5672 5673 5675 5677 5678 5681 5683 5685 5686 5687 5688 5689 5690 5691 5692 5693 5694 5696 5697 5698 5699 5701 5702
5613 5612 5611 5610 5609 5608 5607 5605 5603 5602 5601 5600 5598 5597 5596 5595 5594 5593 5592 5592 5592 5593 5594 5596 5597 5600 5603 5606 5609 5612 5615 5617 5618 5619 5621 5623 5626 5629 5632 5634 5635 5637 5639 5641 5641 5642 5643 5644 5644 5645 5646 5648 5649 5650 5650 5651 5654 5655 5657 5658 5660 5662 5664 5666 5668 5669 5670 5672 5674 5676 5677 5679 5681 5683 5685 5686 5687 5688 5689 5689 5690 5691 5692 5694 5695 5696 5697 5698